| time (UTC) | temp F | wind direction | speed MPH | gust MPH | rain 1hr in | rain 24hr in | rain mn in | humidity % | barometer mb |
| 20260903074546 | 46 | 340 | 1.0 | 3.0 | 0.00 | 0.00 | 0.00 | 70 | 1020.5 |
| 20260903073046 | 46 | 327 | 1.0 | 4.0 | 0.00 | 0.00 | 0.00 | 69 | 1020.4 |
| 20260903071553 | 46 | 327 | 1.0 | 12.0 | 0.00 | 0.00 | 0.00 | 70 | 1020.3 |
| 20260903070057 | 46 | 211 | 1.0 | 9.0 | 0.00 | 0.00 | 0.00 | 69 | 1020.2 |
| 20260903064546 | 46 | 63 | 1.0 | 5.0 | 0.00 | 0.00 | 0.00 | 67 | 1020.3 |
| 20260903063110 | 46 | 71 | 1.0 | 5.0 | 0.00 | 0.00 | 0.00 | 66 | 1020.3 |
| 20260903061543 | 46 | 85 | 2.0 | 5.0 | 0.00 | 0.00 | 0.00 | 65 | 1020.3 |
| 20260903060051 | 46 | 88 | 1.0 | 4.0 | 0.00 | 0.00 | 0.00 | 63 | 1020.4 |
| 20260903054549 | 46 | 88 | 1.0 | 6.0 | 0.00 | 0.00 | 0.00 | 63 | 1020.5 |
| 20260903053045 | 46 | 62 | 2.0 | 5.0 | 0.00 | 0.00 | 0.00 | 64 | 1020.7 |
| 20260903051548 | 46 | 27 | 1.0 | 4.0 | 0.00 | 0.00 | 0.00 | 66 | 1020.8 |
| 20260903050107 | 46 | 15 | 1.0 | 6.0 | 0.00 | 0.00 | 0.00 | 68 | 1020.8 |
| 20260903044551 | 46 | 140 | 1.0 | 3.0 | 0.00 | 0.00 | 0.00 | 68 | 1021.0 |
| 20260903043048 | 46 | 140 | 1.0 | 4.0 | 0.00 | 0.00 | 0.00 | 68 | 1020.8 |
| 20260903041550 | 47 | 185 | 0.0 | 4.0 | 0.00 | 0.00 | 0.00 | 67 | 1020.8 |
| 20260903040055 | 47 | 301 | 1.0 | 5.0 | 0.00 | 0.00 | 0.00 | 67 | 1020.7 |
| 20260903034552 | 47 | 355 | 1.0 | 3.0 | 0.00 | 0.00 | 0.00 | 67 | 1020.5 |
| 20260903033046 | 47 | 335 | 1.0 | 4.0 | 0.00 | 0.00 | 0.00 | 65 | 1020.4 |
| 20260903031546 | 48 | 213 | 2.0 | 6.0 | 0.00 | 0.00 | 0.00 | 64 | 1020.2 |
| 20260903030058 | 48 | 163 | 1.0 | 6.0 | 0.00 | 0.00 | 0.00 | 63 | 1020.2 |
| 20260903024550 | 49 | 242 | 3.0 | 9.0 | 0.00 | 0.00 | 0.00 | 62 | 1020.3 |
| 20260903023046 | 49 | 265 | 1.0 | 6.0 | 0.00 | 0.00 | 0.00 | 61 | 1020.4 |
| 20260903021547 | 50 | 309 | 3.0 | 11.0 | 0.00 | 0.00 | 0.00 | 60 | 1020.3 |
| 20260903020049 | 50 | 266 | 1.0 | 14.0 | 0.00 | 0.00 | 0.00 | 59 | 1020.2 |
| 20260903014555 | 51 | 206 | 5.0 | 18.0 | 0.00 | 0.00 | 0.00 | 57 | 1020.2 |
| 20260903013050 | 51 | 202 | 4.0 | 13.0 | 0.00 | 0.00 | 0.00 | 58 | 1020.2 |
| 20260903011559 | 51 | 186 | 3.0 | 14.0 | 0.00 | 0.00 | 0.00 | 56 | 1020.2 |
| 20260903010044 | 52 | 185 | 5.0 | 18.0 | 0.00 | 0.00 | 0.00 | 55 | 1020.3 |
| 20260903004557 | 52 | 189 | 4.0 | 18.0 | 0.00 | 0.00 | 0.00 | 53 | 1020.2 |
| 20260903003048 | 53 | 180 | 4.0 | 19.0 | 0.00 | 0.00 | 0.00 | 51 | 1020.3 |
| 20260903001544 | 53 | 167 | 4.0 | 15.0 | 0.00 | 0.00 | 0.00 | 50 | 1020.3 |
| 20260903000057 | 53 | 161 | 5.0 | 18.0 | 0.00 | 0.00 | 0.00 | 49 | 1020.3 |
| 20260902234554 | 54 | 250 | 6.0 | 23.0 | 0.00 | 0.00 | 0.00 | 47 | 1020.4 |
| 20260902233057 | 54 | 212 | 3.0 | 20.0 | 0.00 | 0.00 | 0.00 | 46 | 1020.1 |
| 20260902231554 | 54 | 206 | 5.0 | 22.0 | 0.00 | 0.00 | 0.00 | 46 | 1020.2 |
| 20260902230045 | 54 | 180 | 5.0 | 19.0 | 0.00 | 0.00 | 0.00 | 48 | 1020.2 |
| 20260902224600 | 54 | 163 | 3.0 | 17.0 | 0.00 | 0.00 | 0.00 | 47 | 1020.2 |
| 20260902223046 | 54 | 181 | 2.0 | 11.0 | 0.00 | 0.00 | 0.00 | 49 | 1020.1 |
| 20260902221550 | 53 | 189 | 4.0 | 18.0 | 0.00 | 0.00 | 0.00 | 49 | 1020.3 |
| 20260902220053 | 53 | 196 | 4.0 | 22.0 | 0.00 | 0.00 | 0.00 | 49 | 1020.5 |
| 20260902214546 | 53 | 189 | 4.0 | 19.0 | 0.00 | 0.00 | 0.00 | 48 | 1020.5 |
| 20260902213052 | 53 | 250 | 4.0 | 14.0 | 0.00 | 0.00 | 0.00 | 48 | 1020.6 |
| 20260902211555 | 53 | 132 | 4.0 | 22.0 | 0.00 | 0.00 | 0.00 | 49 | 1020.8 |
| 20260902210046 | 54 | 144 | 5.0 | 23.0 | 0.00 | 0.00 | 0.00 | 48 | 1020.7 |
| 20260902204545 | 56 | 189 | 5.0 | 22.0 | 0.00 | 0.00 | 0.00 | 44 | 1020.7 |
| 20260902203053 | 55 | 173 | 4.0 | 18.0 | 0.00 | 0.00 | 0.00 | 49 | 1020.7 |
| 20260902201556 | 56 | 222 | 5.0 | 16.0 | 0.00 | 0.00 | 0.00 | 47 | 1020.9 |
| 20260902200051 | 55 | 192 | 6.0 | 20.0 | 0.00 | 0.00 | 0.00 | 48 | 1021.0 |
| 20260902194557 | 55 | 197 | 6.0 | 19.0 | 0.00 | 0.00 | 0.00 | 49 | 1021.0 |
| 20260902193057 | 54 | 183 | 7.0 | 18.0 | 0.00 | 0.00 | 0.00 | 50 | 1021.1 |
| 20260902191556 | 55 | 178 | 5.0 | 20.0 | 0.00 | 0.00 | 0.00 | 53 | 1021.1 |
| 20260902190050 | 54 | 211 | 8.0 | 22.0 | 0.00 | 0.00 | 0.00 | 51 | 1021.0 |
| 20260902184558 | 54 | 186 | 4.0 | 17.0 | 0.00 | 0.00 | 0.00 | 53 | 1021.0 |
| 20260902183048 | 54 | 184 | 7.0 | 19.0 | 0.00 | 0.00 | 0.00 | 51 | 1021.0 |
| 20260902181546 | 54 | 205 | 3.0 | 12.0 | 0.00 | 0.00 | 0.00 | 53 | 1021.0 |
| 20260902180122 | 53 | 189 | 5.0 | 15.0 | 0.00 | 0.00 | 0.00 | 55 | 1020.8 |
| 20260902174544 | 51 | 193 | 6.0 | 15.0 | 0.00 | 0.00 | 0.00 | 57 | 1020.9 |
| 20260902173047 | 51 | 242 | 5.0 | 12.0 | 0.00 | 0.00 | 0.00 | 58 | 1020.7 |
| 20260902171602 | 49 | 178 | 3.0 | 17.0 | 0.00 | 0.00 | 0.00 | 60 | 1020.6 |
| 20260902170044 | 50 | 182 | 3.0 | 13.0 | 0.00 | 0.00 | 0.00 | 59 | 1020.6 |
| 20260902164553 | 50 | 175 | 1.0 | 11.0 | 0.00 | 0.00 | 0.00 | 61 | 1020.5 |
| 20260902163056 | 48 | 0 | 4.0 | 10.0 | 0.00 | 0.00 | 0.00 | 64 | 1020.3 |
| 20260902161553 | 47 | 161 | 1.0 | 12.0 | 0.00 | 0.00 | 0.00 | 66 | 1020.3 |
| 20260902160043 | 47 | 161 | 2.0 | 10.0 | 0.00 | 0.00 | 0.00 | 66 | 1020.4 |
| 20260902154550 | 46 | 157 | 1.0 | 8.0 | 0.00 | 0.00 | 0.00 | 66 | 1020.5 |
| 20260902153045 | 45 | 188 | 1.0 | 11.0 | 0.00 | 0.00 | 0.00 | 68 | 1020.5 |
| 20260902151551 | 45 | 171 | 1.0 | 13.0 | 0.00 | 0.00 | 0.00 | 70 | 1020.6 |
| 20260902150046 | 45 | 105 | 2.0 | 9.0 | 0.00 | 0.00 | 0.00 | 70 | 1020.5 |
| 20260902144544 | 44 | 198 | 1.0 | 6.0 | 0.00 | 0.00 | 0.00 | 71 | 1020.5 |
| 20260902143050 | 44 | 0 | 0.0 | 4.0 | 0.00 | 0.00 | 0.00 | 70 | 1020.2 |
| 20260902141548 | 43 | 271 | 1.0 | 4.0 | 0.00 | 0.00 | 0.00 | 72 | 1020.0 |
| 20260902140045 | 43 | 269 | 0.0 | 9.0 | 0.00 | 0.00 | 0.00 | 70 | 1019.9 |
| 20260902134547 | 43 | 277 | 0.0 | 9.0 | 0.00 | 0.00 | 0.00 | 69 | 1019.7 |
| 20260902133044 | 43 | 333 | 1.0 | 5.0 | 0.00 | 0.00 | 0.00 | 69 | 1019.6 |
| 20260902131551 | 43 | 340 | 1.0 | 3.0 | 0.00 | 0.00 | 0.00 | 69 | 1019.4 |
| 20260902130057 | 43 | 340 | 1.0 | 3.0 | 0.00 | 0.00 | 0.00 | 68 | 1019.3 |
| 20260902124544 | 43 | 339 | 1.0 | 5.0 | 0.00 | 0.00 | 0.00 | 68 | 1019.2 |
| 20260902123052 | 43 | 329 | 1.0 | 3.0 | 0.00 | 0.00 | 0.00 | 66 | 1019.2 |
| 20260902121558 | 43 | 296 | 1.0 | 6.0 | 0.00 | 0.00 | 0.00 | 65 | 1019.2 |
| 20260902120045 | 43 | 0 | 0.0 | 4.0 | 0.00 | 0.00 | 0.00 | 65 | 1019.2 |
| 20260902114544 | 43 | 280 | 1.0 | 5.0 | 0.00 | 0.00 | 0.00 | 64 | 1019.2 |
| 20260902113047 | 43 | 235 | 1.0 | 4.0 | 0.00 | 0.00 | 0.00 | 64 | 1019.3 |
| 20260902111554 | 43 | 232 | 2.0 | 4.0 | 0.00 | 0.00 | 0.00 | 64 | 1019.3 |
| 20260902110051 | 43 | 232 | 1.0 | 3.0 | 0.00 | 0.00 | 0.00 | 63 | 1018.9 |
| 20260902104552 | 43 | 232 | 1.0 | 4.0 | 0.00 | 0.00 | 0.00 | 62 | 1019.0 |
| 20260902103043 | 43 | 232 | 1.0 | 4.0 | 0.00 | 0.00 | 0.00 | 61 | 1019.5 |
| 20260902101544 | 43 | 232 | 1.0 | 3.0 | 0.00 | 0.00 | 0.00 | 61 | 1019.5 |
| 20260902100103 | 43 | 232 | 0.0 | 5.0 | 0.00 | 0.00 | 0.00 | 61 | 1019.4 |
| 20260902094545 | 44 | 232 | 1.0 | 3.0 | 0.00 | 0.00 | 0.00 | 60 | 1019.1 |
| 20260902093048 | 44 | 232 | 1.0 | 6.0 | 0.00 | 0.00 | 0.00 | 59 | 1019.2 |
| 20260902091545 | 44 | 230 | 1.0 | 5.0 | 0.00 | 0.00 | 0.00 | 58 | 1019.4 |
| 20260902090053 | 44 | 230 | 2.0 | 4.0 | 0.00 | 0.00 | 0.00 | 58 | 1019.6 |
| 20260902084558 | 45 | 229 | 1.0 | 6.0 | 0.00 | 0.00 | 0.00 | 56 | 1019.5 |
| 20260902083050 | 45 | 78 | 2.0 | 12.0 | 0.00 | 0.00 | 0.00 | 54 | 1019.4 |
| 20260902081549 | 45 | 323 | 3.0 | 10.0 | 0.00 | 0.00 | 0.00 | 51 | 1019.5 |
| 20260902080046 | 45 | 203 | 2.0 | 12.0 | 0.00 | 0.00 | 0.00 | 50 | 1019.4 |